Weather History for KIEN - January, 2014

Change the Weather History Date:

Friday, January 17, 2014

  Actual Average Record
Temperature  
Mean Temperature 28 °F 24 °F  
Max Temperature 45 °F 37 °F 57 °F (2000)
Min Temperature 11 °F 10 °F -11 °F (2008)
Degree Days  
Heating Degree Days 37 41  
Month to date heating degree days 644 712  
Since 1 July heating degree days 3635 3702  
Cooling Degree Days 0 0  
Month to date cooling degree days 0 0  
Year to date cooling degree days 0 0  
Moisture  
Dew Point 18 °F    
Average Humidity 65    
Maximum Humidity 92    
Minimum Humidity 37    
Precipitation  
Precipitation 0.00 in 0.01 in 0.02 in (1999)
Month to date precipitation 0.06 0.14  
Year to date precipitation 0.06 0.14  
Sea Level Pressure  
Sea Level Pressure 30.10 in    
Wind  
Wind Speed 6 mph (West)    
Max Wind Speed 17 mph    
Max Gust Speed 23 mph    
Visibility 10 miles    
Events      
T = Trace of Precipitation, MM = Missing Value Source: NWS Daily Summary

Daily Weather History Graph

Daily Weather History Graph

Search for Another Location

Airport or City:

Trip Planner

Search our weather history database for the weather conditions in past years. The results will help you decide how hot, cold, wet, or windy it might be!

Date:

Astronomy

Jan. 17, 2014 Rise Set
Actual Time 7:17 AM MST 4:43 PM MST
Civil Twilight 6:46 AM MST 5:14 PM MST
Nautical Twilight 6:11 AM MST 5:49 PM MST
Astronomical Twilight 5:37 AM MST 6:23 PM MST
Moon 6:35 PM MST (1/17) 7:43 AM MST (1/17)
Length of Visible Light 10h 28m
Length of Day
9h 25m
Full, 98% of the Moon is Illuminated
Jan 17
Full
Jan 23
Last Quarter
Jan 30
New
Feb 6
First Quarter
Feb 14
Full

Hourly Weather History & Observations

Time (MST) Temp. Windchill Dew Point Humidity Pressure Visibility Wind Dir Wind Speed Gust Speed Precip Events Conditions
12:52 AM 16.0 °F - 12.0 °F 84% 30.27 in 10.0 mi Calm Calm - N/A   Clear
1:52 AM 17.1 °F - 12.9 °F 84% 30.27 in 10.0 mi Calm Calm - N/A   Clear
2:52 AM 18.0 °F - 12.9 °F 81% 30.25 in 10.0 mi Calm Calm - N/A   Clear
3:52 AM 17.1 °F - 12.0 °F 81% 30.24 in 10.0 mi Calm Calm - N/A   Clear
4:52 AM 12.0 °F - 9.0 °F 88% 30.25 in 10.0 mi Calm Calm - N/A   Clear
5:52 AM 10.9 °F - 8.1 °F 88% 30.24 in 10.0 mi Calm Calm - N/A   Clear
6:52 AM 14.0 °F - 9.0 °F 80% 30.22 in 10.0 mi Calm Calm - N/A   Clear
7:52 AM 16.0 °F - 12.0 °F 84% 30.20 in 10.0 mi Calm Calm - N/A   Partly Cloudy
8:52 AM 25.0 °F 20.7 °F 19.9 °F 81% 30.18 in 10.0 mi WSW 3.5 mph - N/A   Overcast
9:52 AM 30.0 °F 22.4 °F 21.9 °F 72% 30.15 in 10.0 mi WSW 8.1 mph - N/A   Overcast
10:52 AM 34.0 °F 27.2 °F 21.9 °F 61% 30.13 in 10.0 mi West 8.1 mph - N/A   Overcast
11:52 AM 37.9 °F 30.0 °F 21.9 °F 53% 30.08 in 10.0 mi West 12.7 mph - N/A   Scattered Clouds
12:52 PM 44.1 °F 36.8 °F 19.9 °F 38% 30.04 in 10.0 mi WNW 16.1 mph 20.7 mph N/A   Clear
1:52 PM 45.0 °F 38.5 °F 19.9 °F 37% 30.01 in 10.0 mi WNW 13.8 mph 23.0 mph N/A   Clear
2:52 PM 45.0 °F 40.1 °F 19.9 °F 37% 29.98 in 10.0 mi West 9.2 mph - N/A   Clear
3:52 PM 44.1 °F 38.1 °F 21.9 °F 42% 29.96 in 10.0 mi West 11.5 mph - N/A   Clear
4:52 PM 41.0 °F 35.2 °F 21.0 °F 45% 30.00 in 10.0 mi West 9.2 mph - N/A   Clear
5:52 PM 39.9 °F 33.4 °F 21.9 °F 49% 30.00 in 10.0 mi West 10.4 mph - N/A   Clear
6:52 PM 39.0 °F 35.7 °F 21.0 °F 49% 30.01 in 10.0 mi WNW 4.6 mph - N/A   Clear
7:52 PM 37.0 °F 33.3 °F 21.9 °F 54% 30.01 in 10.0 mi West 4.6 mph - N/A   Clear
8:52 PM 32.0 °F 26.4 °F 21.9 °F 66% 29.99 in 10.0 mi WSW 5.8 mph - N/A   Scattered Clouds
9:52 PM 33.1 °F 30.0 °F 21.9 °F 64% 29.98 in 10.0 mi West 3.5 mph - N/A   Clear
10:52 PM 35.1 °F 29.3 °F 21.9 °F 59% 29.96 in 10.0 mi WNW 6.9 mph - N/A   Clear
11:52 PM 36.0 °F 27.5 °F 21.9 °F 57% 29.94 in 10.0 mi West 12.7 mph - N/A   Clear